This is the latest recevied weather packets stored in our database for station/object KC0OOO-WX. If no packets are shown the sender has not sent any weather packets the latest 10 day(s).
| Time | Temp. | Humidity | Pressure | Rain* | Wind** | Luminosity | Snow |
|---|---|---|---|---|---|---|---|
| 1777330439 | 13.33° C | 31% | 1015.9 hPa | 0 mm | - | - | - |
| 1777329839 | 13.89° C | 30% | 1016.3 hPa | 0 mm | - | - | - |
| 1777329239 | 13.33° C | 30% | 1016.3 hPa | 0 mm | - | - | - |
| 1777328609 | 12.78° C | 34% | 1016.3 hPa | 0 mm | - | - | - |
| 1777328009 | 12.78° C | 32% | 1016.3 hPa | 0 mm | - | - | - |
| 1777327379 | 12.78° C | 32% | 1016.3 hPa | 0 mm | - | - | - |
| 1777326779 | 12.78° C | 31% | 1016.3 hPa | 0 mm | - | - | - |
| 1777326179 | 13.89° C | 34% | 1016.6 hPa | 0 mm | - | - | - |
| 1777325579 | 13.33° C | 36% | 1016.6 hPa | 0 mm | - | - | - |
| 1777324979 | 12.78° C | 34% | 1016.6 hPa | 0 mm | - | - | - |
| 1777324349 | 12.78° C | 38% | 1016.6 hPa | 0 mm | - | - | - |
| 1777323749 | 12.78° C | 38% | 1016.6 hPa | 0 mm | - | - | - |
| 1777323149 | 12.78° C | 36% | 1016.6 hPa | 0 mm | - | - | - |
| 1777322549 | 12.22° C | 41% | 1016.9 hPa | 0 mm | - | - | - |
| 1777321949 | 12.22° C | 41% | 1016.9 hPa | 0 mm | - | - | - |
| 1777321349 | 11.67° C | 44% | 1016.9 hPa | 0 mm | - | - | - |
| 1777320749 | 12.22° C | 42% | 1016.9 hPa | 0 mm | - | - | - |
| 1777320119 | 12.78° C | 47% | 1016.9 hPa | 0 mm | - | - | - |
| 1777319519 | 11.67° C | 46% | 1016.9 hPa | 0 mm | - | - | - |
| 1777318919 | 8.89° C | 49% | 1016.9 hPa | 0 mm | - | - | - |
| 1777318319 | 8.89° C | 48% | 1016.9 hPa | 0 mm | - | - | - |
| 1777317689 | 9.44° C | 46% | 1016.9 hPa | 0 mm | - | - | - |
| 1777317059 | 10.56° C | 45% | 1017.3 hPa | 0 mm | - | - | - |
| 1777316458 | 10.56° C | 48% | 1017.3 hPa | 0 mm | - | - | - |
| 1777315858 | 10° C | 46% | 1017.3 hPa | 0 mm | - | - | - |
* Rain latest hour (hover to see other rain measurements)
** Current wind speed in m/s (hover to see current wind gust speed)